Santa Monica, CA

7:37 AM PDT on May 27, 2018 (GMT -0700)
Santa Monica Municipal

Weather History for KSMO - November, 2012

Change the Weather History Date:

Thursday, November 15, 2012

  Actual Average Record
Temperature  
Mean Temperature 60 °F -  
Max Temperature 68 °F 70 °F 89 °F (1949)
Min Temperature 53 °F 51 °F 39 °F (1938)
Degree Days  
Heating Degree Days 4    
Growing Degree Days 10 (Base 50)    
Moisture  
Dew Point 44 °F    
Average Humidity 58    
Maximum Humidity 83    
Minimum Humidity 30    
Precipitation  
Precipitation 0.00 in - - ()
Sea Level Pressure  
Sea Level Pressure 30.07 in    
Wind  
Wind Speed 2 mph (ENE)    
Max Wind Speed 6 mph    
Max Gust Speed -    
Visibility 8 miles    
Events Rain    
Averages and records for this station are not official NWS values.
T = Trace of Precipitation, MM = Missing Value Source: NWS Daily Summary

Daily Weather History Graph

Daily Weather History Graph

Search for Another Location

Airport or City:

Astronomy

Nov. 15, 2012 Rise Set
Actual Time 6:26 AM PST 4:49 PM PST
Civil Twilight 6:00 AM PST 5:16 PM PST
Nautical Twilight 5:30 AM PST 5:46 PM PST
Astronomical Twilight 5:00 AM PST 6:16 PM PST
Moon 8:24 AM PST (11/15) 6:49 PM PST (11/15)
Length of Visible Light 11h 16m
Length of Day
10h 22m
Waxing Crescent, 5% of the Moon is Illuminated
Nov 15
Waxing Crescent
Nov 20
First Quarter
Nov 28
Full
Dec 6
Last Quarter
Dec 13
New

Hourly Weather History & Observations

Time (PST) Temp. Dew Point Humidity Pressure Visibility Wind Dir Wind Speed Gust Speed Precip Events Conditions
12:51 AM 55.0 °F 43.0 °F 64% 30.02 in 10.0 mi ENE 4.6 mph - N/A   Clear
1:51 AM 57.0 °F 43.0 °F 59% 30.04 in 10.0 mi Calm Calm - N/A   Clear
3:51 AM 54.0 °F 43.0 °F 66% 30.06 in 10.0 mi Calm Calm - N/A   Clear
4:51 AM 53.1 °F 48.0 °F 83% 30.05 in 5.0 mi Calm Calm - N/A   Haze
5:51 AM 54.0 °F 46.9 °F 77% 30.03 in 6.0 mi NNE 4.6 mph - N/A   Haze
6:51 AM 55.0 °F 46.9 °F 74% 30.05 in 6.0 mi Calm Calm - N/A   Haze
7:51 AM 55.9 °F 48.9 °F 77% 30.08 in 4.0 mi Calm Calm - N/A   Haze
8:51 AM 60.1 °F 48.9 °F 67% 30.10 in 5.0 mi Calm Calm - N/A   Haze
9:51 AM 62.1 °F 41.0 °F 46% 30.10 in 6.0 mi NE 3.5 mph - N/A   Haze
10:51 AM 64.9 °F 35.1 °F 33% 30.11 in 8.0 mi Calm Calm - N/A   Clear
12:51 PM 66.0 °F 37.9 °F 36% 30.09 in 8.0 mi ESE 3.5 mph - N/A   Overcast
1:51 PM 66.9 °F 37.0 °F 33% 30.08 in 8.0 mi Calm Calm - N/A   Mostly Cloudy
2:51 PM 68.0 °F 35.1 °F 30% 30.05 in 8.0 mi ESE 4.6 mph - N/A   Clear
3:51 PM 66.9 °F 37.9 °F 34% 30.06 in 9.0 mi SE 5.8 mph - N/A   Partly Cloudy
6:51 PM 62.1 °F 52.0 °F 70% 30.09 in 10.0 mi Calm Calm - 0.00 in   Mostly Cloudy
7:51 PM 62.1 °F 51.1 °F 67% 30.09 in 9.0 mi Calm Calm - 0.00 in Rain Light Rain
8:51 PM 61.0 °F 53.1 °F 75% 30.10 in 7.0 mi Calm Calm - 0.00 in   Overcast
9:51 PM 60.1 °F 46.9 °F 62% 30.11 in 10.0 mi NW 3.5 mph - 0.00 in   Overcast
10:51 PM 60.1 °F 45.0 °F 57% 30.09 in 10.0 mi Calm Calm - N/A   Overcast
11:51 PM 60.1 °F 44.1 °F 55% 30.09 in 10.0 mi Calm Calm - N/A   Overcast